Alma, MI

8:34 PM EDT on June 28, 2017 (GMT -0400)
Gratiot Community

Weather History for KAMN - February, 2013

Change the Weather History Date:

Thursday, February 21, 2013

  Actual Average Record
Temperature  
Mean Temperature 20 °F -  
Max Temperature 22 °F 37 °F 60 °F (1983)
Min Temperature 18 °F 17 °F -9 °F (1966)
Degree Days  
Heating Degree Days 45    
Moisture  
Dew Point 15 °F    
Average Humidity 79    
Maximum Humidity 91    
Minimum Humidity 70    
Precipitation  
Precipitation 0.00 in - - ()
Sea Level Pressure  
Sea Level Pressure 30.32 in    
Wind  
Wind Speed 10 mph (NNE)    
Max Wind Speed 16 mph    
Max Gust Speed 23 mph    
Visibility 10 miles    
Events Snow    
Averages and records for this station are not official NWS values.
T = Trace of Precipitation, MM = Missing Value Source: NWS Daily Summary

Daily Weather History Graph

Daily Weather History Graph

Search for Another Location

Airport or City:

Trip Planner

Search our weather history database for the weather conditions in past years. The results will help you decide how hot, cold, wet, or windy it might be!

Date:

Astronomy

Feb. 21, 2013 Rise Set
Actual Time 7:27 AM EST 6:17 PM EST
Civil Twilight 6:58 AM EST 6:46 PM EST
Nautical Twilight 6:25 AM EST 7:19 PM EST
Astronomical Twilight 5:52 AM EST 7:53 PM EST
Moon 2:27 PM EST (2/21) 4:36 AM EST (2/21)
Length of Visible Light 11h 48m
Length of Day
10h 50m
Waxing Gibbous, 83% of the Moon is Illuminated
Feb 21
Waxing Gibbous
Feb 25
Full
Mar 4
Last Quarter
Mar 11
New
Mar 19
First Quarter

Hourly Weather History & Observations

Time (EST) Temp. Windchill Dew Point Humidity Pressure Visibility Wind Dir Wind Speed Gust Speed Precip Events Conditions
12:14 AM 22.1 °F 8.9 °F 15.6 °F 76% 30.24 in 10.0 mi NNW 15.0 mph 21.9 mph N/A Snow Light Snow
12:34 AM 22.1 °F 10.0 °F 15.8 °F 77% 30.24 in 10.0 mi NNW 12.7 mph 17.3 mph N/A Snow Light Snow
12:54 AM 22.3 °F 13.9 °F 16.2 °F 77% 30.25 in 10.0 mi NW 6.9 mph - N/A Snow Light Snow
1:14 AM 22.3 °F 14.9 °F 16.0 °F 77% 30.25 in 10.0 mi NNW 5.8 mph - N/A Snow Light Snow
1:34 AM 21.6 °F 13.0 °F 17.1 °F 83% 30.26 in 7.0 mi North 6.9 mph - N/A Snow Light Snow
1:54 AM 21.4 °F 15.1 °F 16.9 °F 83% 30.26 in 10.0 mi North 4.6 mph - N/A   Overcast
2:14 AM 21.7 °F 15.5 °F 17.1 °F 82% 30.27 in 10.0 mi NW 4.6 mph - N/A Snow Light Snow
2:35 AM 21.9 °F 13.4 °F 16.9 °F 81% 30.27 in 10.0 mi NNW 6.9 mph - N/A Snow Light Snow
2:50 AM 21.9 °F 11.7 °F 15.8 °F 77% 30.27 in 10.0 mi NNW 9.2 mph - N/A   Overcast
3:10 AM 21.9 °F 11.7 °F 16.2 °F 78% 30.27 in 10.0 mi NNW 9.2 mph - N/A Snow Light Snow
3:30 AM 21.9 °F 13.4 °F 16.3 °F 79% 30.27 in 10.0 mi North 6.9 mph - N/A   Overcast
3:50 AM 21.9 °F 12.5 °F 16.0 °F 78% 30.26 in 10.0 mi NNW 8.1 mph - N/A   Overcast
4:10 AM 21.9 °F 13.4 °F 16.5 °F 80% 30.26 in 10.0 mi NNW 6.9 mph - N/A   Overcast
4:30 AM 22.1 °F 14.7 °F 16.5 °F 79% 30.27 in 10.0 mi NW 5.8 mph - N/A   Overcast
4:50 AM 22.1 °F 12.0 °F 16.3 °F 79% 30.27 in 10.0 mi NNW 9.2 mph 17.3 mph N/A   Overcast
5:10 AM 22.1 °F 12.0 °F 16.2 °F 78% 30.28 in 10.0 mi NNW 9.2 mph - N/A   Overcast
5:30 AM 22.1 °F 11.3 °F 16.5 °F 79% 30.29 in 10.0 mi NNW 10.4 mph - N/A   Overcast
5:51 AM 22.1 °F 10.6 °F 16.7 °F 80% 30.30 in 10.0 mi NW 11.5 mph - N/A   Overcast
6:11 AM 21.9 °F 10.4 °F 16.2 °F 78% 30.30 in 10.0 mi NNW 11.5 mph 19.6 mph N/A   Overcast
6:51 AM 21.7 °F 12.3 °F 16.2 °F 79% 30.31 in 10.0 mi North 8.1 mph - N/A   Overcast
7:11 AM 21.6 °F 12.1 °F 16.0 °F 79% 30.33 in 10.0 mi North 8.1 mph - N/A   Overcast
7:31 AM 21.0 °F 11.4 °F 15.8 °F 80% 30.34 in 10.0 mi North 8.1 mph - N/A   Overcast
7:51 AM 21.0 °F 12.4 °F 16.2 °F 81% 30.35 in 10.0 mi North 6.9 mph - N/A   Overcast
8:11 AM 21.0 °F 11.4 °F 16.0 °F 81% 30.34 in 10.0 mi North 8.1 mph 16.1 mph N/A   Overcast
8:32 AM 20.7 °F 9.5 °F 15.4 °F 80% 30.33 in 10.0 mi North 10.4 mph 17.3 mph N/A   Overcast
8:52 AM 20.1 °F 8.1 °F 14.7 °F 80% 30.33 in 10.0 mi North 11.5 mph 18.4 mph N/A   Overcast
9:12 AM 19.4 °F 7.2 °F 13.8 °F 79% 30.33 in 10.0 mi NNE 11.5 mph 18.4 mph N/A   Overcast
9:32 AM 18.9 °F 5.3 °F 13.6 °F 80% 30.34 in 10.0 mi NNE 13.8 mph 18.4 mph N/A   Overcast
9:52 AM 18.7 °F 5.7 °F 13.3 °F 79% 30.37 in 7.0 mi NNW 12.7 mph - N/A Snow Light Snow
10:12 AM 18.7 °F 8.6 °F 12.7 °F 78% 30.38 in 7.0 mi North 8.1 mph - N/A Snow Light Snow
10:32 AM 19.4 °F 11.5 °F 12.7 °F 75% 30.36 in 10.0 mi North 5.8 mph - N/A   Overcast
10:52 AM 19.6 °F 8.9 °F 13.1 °F 76% 30.36 in 7.0 mi NNE 9.2 mph - N/A Snow Light Snow
11:12 AM 19.8 °F 9.9 °F 12.7 °F 74% 30.36 in 10.0 mi ENE 8.1 mph - N/A   Overcast
11:33 AM 19.4 °F 9.5 °F 12.2 °F 74% 30.38 in 10.0 mi NE 8.1 mph - N/A   Overcast
11:53 AM 19.9 °F 13.4 °F 12.0 °F 71% 30.37 in 10.0 mi NE 4.6 mph - N/A   Overcast
12:13 PM 20.1 °F 15.2 °F 11.8 °F 70% 30.36 in 10.0 mi NE 3.5 mph - N/A   Overcast
12:33 PM 20.3 °F - 12.0 °F 70% 30.37 in 10.0 mi Calm Calm - N/A   Overcast
1:13 PM 21.2 °F 13.6 °F 13.8 °F 73% 30.36 in 10.0 mi ENE 5.8 mph - N/A   Overcast
1:33 PM 20.8 °F - 12.7 °F 71% 30.37 in 10.0 mi Calm Calm - N/A   Overcast
1:53 PM 21.4 °F 13.8 °F 14.2 °F 74% 30.37 in 10.0 mi ENE 5.8 mph - N/A   Overcast
2:13 PM 21.7 °F 11.5 °F 14.5 °F 74% 30.35 in 10.0 mi ENE 9.2 mph - N/A   Overcast
2:34 PM 21.2 °F 13.6 °F 13.5 °F 72% 30.35 in 10.0 mi East 5.8 mph - N/A   Overcast
2:54 PM 21.4 °F 11.9 °F 13.8 °F 73% 30.34 in 10.0 mi ENE 8.1 mph - N/A   Overcast
3:14 PM 21.7 °F 11.5 °F 14.0 °F 72% 30.33 in 10.0 mi East 9.2 mph - N/A   Mostly Cloudy
3:34 PM 21.7 °F 11.5 °F 13.6 °F 71% 30.32 in 10.0 mi ENE 9.2 mph - N/A   Scattered Clouds
3:54 PM 22.1 °F 12.0 °F 14.5 °F 73% 30.31 in 10.0 mi ENE 9.2 mph - N/A   Scattered Clouds
4:14 PM 21.9 °F 11.0 °F 14.0 °F 72% 30.30 in 10.0 mi ENE 10.4 mph - N/A   Scattered Clouds
4:34 PM 21.2 °F 9.5 °F 13.6 °F 73% 30.31 in 10.0 mi ENE 11.5 mph - N/A   Scattered Clouds
4:54 PM 20.5 °F 8.6 °F 13.6 °F 75% 30.34 in 10.0 mi East 11.5 mph - N/A   Clear
5:14 PM 19.9 °F 7.9 °F 13.6 °F 77% 30.36 in 10.0 mi East 11.5 mph 16.1 mph N/A   Clear
5:35 PM 19.2 °F 7.0 °F 13.3 °F 78% 30.36 in 10.0 mi ENE 11.5 mph - N/A   Clear
5:55 PM 19.0 °F 6.8 °F 13.6 °F 79% 30.35 in 10.0 mi ENE 11.5 mph - N/A   Clear
6:15 PM 18.9 °F 6.5 °F 13.6 °F 80% 30.35 in 10.0 mi ENE 11.5 mph - N/A   Clear
6:35 PM 18.9 °F 7.2 °F 13.8 °F 81% 30.34 in 10.0 mi ENE 10.4 mph - N/A   Clear
6:50 PM 19.0 °F 6.1 °F 14.2 °F 81% 30.33 in 10.0 mi ENE 12.7 mph - N/A   Clear
7:10 PM 19.0 °F 6.8 °F 14.5 °F 83% 30.33 in 10.0 mi ENE 11.5 mph - N/A   Clear
7:30 PM 18.9 °F 6.5 °F 14.7 °F 84% 30.33 in 10.0 mi ENE 11.5 mph - N/A   Clear
7:50 PM 18.5 °F 6.8 °F 14.7 °F 85% 30.33 in 10.0 mi ENE 10.4 mph - N/A   Clear
8:11 PM 19.0 °F 6.8 °F 14.9 °F 84% 30.32 in 10.0 mi ENE 11.5 mph - N/A   Clear
8:31 PM 19.0 °F 7.5 °F 14.9 °F 84% 30.31 in 10.0 mi ENE 10.4 mph - N/A   Clear
8:51 PM 19.0 °F 5.0 °F 14.9 °F 84% 30.31 in 10.0 mi ENE 15.0 mph - N/A   Clear
9:11 PM 19.0 °F 4.5 °F 15.4 °F 86% 30.29 in 10.0 mi ENE 16.1 mph 21.9 mph N/A   Clear
9:31 PM 19.4 °F 5.5 °F 15.8 °F 86% 30.30 in 10.0 mi ENE 15.0 mph - N/A   Scattered Clouds
9:51 PM 19.4 °F 5.5 °F 16.2 °F 87% 30.30 in 10.0 mi East 15.0 mph 20.7 mph N/A   Mostly Cloudy
10:11 PM 19.9 °F 6.2 °F 16.5 °F 87% 30.30 in 10.0 mi East 15.0 mph - N/A   Overcast
10:31 PM 20.1 °F 6.4 °F 16.7 °F 87% 30.29 in 10.0 mi East 15.0 mph 23.0 mph N/A   Overcast
10:51 PM 20.3 °F 6.1 °F 17.1 °F 87% 30.29 in 10.0 mi East 16.1 mph 23.0 mph N/A   Overcast
11:12 PM 20.3 °F 6.1 °F 17.6 °F 89% 30.29 in 10.0 mi East 16.1 mph 20.7 mph N/A   Overcast
11:32 PM 20.7 °F 7.1 °F 18.1 °F 90% 30.27 in 10.0 mi East 15.0 mph 20.7 mph N/A   Overcast
11:51 PM 21.0 °F 7.6 °F 18.9 °F 91% 30.26 in 10.0 mi East 15.0 mph 20.7 mph N/A   Overcast